Change the Weather History Date:

Thursday, December 19, 2013

  Actual Average Record
Temperature  
Mean Temperature 16 °F -  
Max Temperature 21 °F 22 °F 42 °F (2006)
Min Temperature 12 °F 7 °F -11 °F (2004)
Degree Days  
Heating Degree Days 48    
Moisture  
Dew Point 8 °F    
Average Humidity 76    
Maximum Humidity 86    
Minimum Humidity 62    
Precipitation  
Precipitation 0.00 in - - ()
Sea Level Pressure  
Sea Level Pressure 30.01 in    
Wind  
Wind Speed 9 mph (North)    
Max Wind Speed 15 mph    
Max Gust Speed 23 mph    
Visibility 8 miles    
Events Snow    
Averages and records for this station are not official NWS values.
T = Trace of Precipitation, MM = Missing Value Source: NWS Daily Summary

Daily Weather History Graph

Daily Weather History Graph

Search for Another Location

Airport or City:

Trip Planner

Search our weather history database for the weather conditions in past years. The results will help you decide how hot, cold, wet, or windy it might be!

Date:

Astronomy

Dec. 19, 2013 Rise Set
Actual Time 7:50 AM CST 4:32 PM CST
Civil Twilight 7:16 AM CST 5:07 PM CST
Nautical Twilight 6:38 AM CST 5:44 PM CST
Astronomical Twilight 6:02 AM CST 6:20 PM CST
Moon 7:05 PM CST (12/19) 9:04 AM CST (12/19)
Length of Visible Light 9h 50m
Length of Day
8h 41m
Waning Gibbous, 95% of the Moon is Illuminated
Dec 19
Waning Gibbous
Dec 25
Last Quarter
Jan 1
New
Jan 7
First Quarter
Jan 15
Full

Hourly Weather History & Observations

Time (CST) Temp. Windchill Dew Point Humidity Pressure Visibility Wind Dir Wind Speed Gust Speed Precip Events Conditions
12:13 AM 21.2 °F 11.7 °F 17.6 °F 86% 29.80 in 10.0 mi NW 8.1 mph - N/A   Clear
12:33 AM 21.2 °F 12.6 °F 17.6 °F 86% 29.81 in 10.0 mi NW 6.9 mph - N/A   Clear
12:53 AM 21.2 °F 13.6 °F 15.8 °F 80% 29.82 in 10.0 mi WNW 5.8 mph - N/A   Clear
1:13 AM 19.4 °F 12.8 °F 15.8 °F 86% 29.84 in 10.0 mi WNW 4.6 mph - N/A   Clear
1:33 AM 19.4 °F 11.5 °F 15.8 °F 86% 29.85 in 10.0 mi WNW 5.8 mph - N/A   Clear
1:53 AM 19.4 °F 12.8 °F 15.8 °F 86% 29.86 in 10.0 mi NW 4.6 mph - N/A   Clear
2:13 AM 21.2 °F 13.6 °F 15.8 °F 80% 29.88 in 10.0 mi NW 5.8 mph - N/A   Clear
2:33 AM 21.2 °F 12.6 °F 15.8 °F 80% 29.87 in 10.0 mi NNW 6.9 mph - N/A   Clear
2:53 AM 21.2 °F 11.7 °F 14.0 °F 74% 29.88 in 10.0 mi North 8.1 mph - N/A   Scattered Clouds
3:13 AM 21.2 °F 10.1 °F 15.8 °F 80% 29.89 in 10.0 mi North 10.4 mph - N/A   Mostly Cloudy
3:33 AM 19.4 °F 8.6 °F 14.0 °F 80% 29.90 in 10.0 mi North 9.2 mph - N/A   Scattered Clouds
3:53 AM 19.4 °F 7.2 °F 12.2 °F 74% 29.91 in 10.0 mi North 11.5 mph - N/A   Clear
4:13 AM 17.6 °F 6.4 °F 10.4 °F 73% 29.92 in 10.0 mi NNW 9.2 mph - N/A   Clear
4:33 AM 17.6 °F 6.4 °F 10.4 °F 73% 29.94 in 10.0 mi NNW 9.2 mph - N/A   Clear
4:53 AM 15.8 °F 3.4 °F 10.4 °F 79% 29.96 in 10.0 mi NNW 10.4 mph - N/A   Clear
5:13 AM 15.8 °F 4.2 °F 10.4 °F 79% 29.95 in 10.0 mi North 9.2 mph - N/A   Mostly Cloudy
5:33 AM 15.8 °F 3.4 °F 10.4 °F 79% 29.95 in 10.0 mi NNW 10.4 mph - N/A   Overcast
5:53 AM 15.8 °F 2.7 °F 8.6 °F 73% 29.96 in 10.0 mi North 11.5 mph - N/A   Overcast
6:13 AM 14.0 °F 5.1 °F 8.6 °F 79% 29.98 in 10.0 mi North 5.8 mph - N/A Snow Light Snow
6:33 AM 14.0 °F 2.0 °F 8.6 °F 79% 30.00 in 10.0 mi North 9.2 mph - N/A   Overcast
6:53 AM 14.0 °F 0.5 °F 8.6 °F 79% 30.00 in 10.0 mi North 11.5 mph 17.3 mph N/A   Overcast
7:13 AM 14.0 °F 2.9 °F 8.6 °F 79% 30.00 in 10.0 mi North 8.1 mph - N/A Snow Light Snow
7:33 AM 14.0 °F 3.9 °F 8.6 °F 79% 30.01 in 10.0 mi North 6.9 mph - N/A   Overcast
7:53 AM 14.0 °F 2.0 °F 8.6 °F 79% 30.02 in 10.0 mi North 9.2 mph - N/A   Overcast
8:13 AM 12.2 °F -1.8 °F 8.6 °F 85% 30.03 in 10.0 mi NNE 11.5 mph - N/A   Scattered Clouds
8:33 AM 12.2 °F -1.8 °F 6.8 °F 79% 30.04 in 10.0 mi North 11.5 mph - N/A   Scattered Clouds
8:53 AM 12.2 °F -1.8 °F 6.8 °F 79% 30.04 in 10.0 mi NNE 11.5 mph - N/A   Clear
9:13 AM 12.2 °F -0.2 °F 6.8 °F 79% 30.05 in 10.0 mi North 9.2 mph 21.9 mph N/A   Clear
9:33 AM 12.2 °F -2.5 °F 6.8 °F 79% 30.06 in 10.0 mi North 12.7 mph - N/A   Clear
9:53 AM 12.2 °F -2.5 °F 5.0 °F 73% 30.06 in 10.0 mi North 12.7 mph - N/A   Clear
10:13 AM 12.2 °F -3.1 °F 5.0 °F 73% 30.07 in 10.0 mi North 13.8 mph 17.3 mph N/A   Scattered Clouds
10:33 AM 12.2 °F -2.5 °F 5.0 °F 73% 30.08 in 10.0 mi North 12.7 mph - N/A   Scattered Clouds
10:53 AM 12.2 °F -1.8 °F 5.0 °F 73% 30.09 in 10.0 mi NNE 11.5 mph 16.1 mph N/A   Scattered Clouds
11:13 AM 12.2 °F -1.0 °F 5.0 °F 73% 30.09 in 10.0 mi NNE 10.4 mph 16.1 mph N/A   Scattered Clouds
11:33 AM 12.2 °F 1.7 °F 3.2 °F 67% 30.08 in 10.0 mi NNE 6.9 mph - N/A   Clear
11:53 AM 12.2 °F -3.1 °F 3.2 °F 67% 30.08 in 10.0 mi NNE 13.8 mph - N/A   Clear
12:13 PM 12.2 °F -1.0 °F 3.2 °F 67% 30.06 in 10.0 mi NNE 10.4 mph 16.1 mph N/A   Clear
12:33 PM 12.2 °F -1.8 °F 3.2 °F 67% 30.06 in 10.0 mi NNE 11.5 mph 16.1 mph N/A   Scattered Clouds
12:53 PM 12.2 °F 0.7 °F 3.2 °F 67% 30.05 in 10.0 mi NNE 8.1 mph - N/A   Scattered Clouds
1:13 PM 12.2 °F 0.7 °F 3.2 °F 67% 30.04 in 10.0 mi NNE 8.1 mph - N/A   Scattered Clouds
1:33 PM 14.0 °F 2.0 °F 3.2 °F 62% 30.04 in 10.0 mi NNE 9.2 mph - N/A   Clear
1:53 PM 14.0 °F 2.9 °F 5.0 °F 67% 30.05 in 10.0 mi North 8.1 mph - N/A   Clear
2:13 PM 14.0 °F 2.9 °F 5.0 °F 67% 30.05 in 10.0 mi NNE 8.1 mph - N/A   Clear
2:33 PM 14.0 °F 2.0 °F 3.2 °F 62% 30.05 in 10.0 mi NNE 9.2 mph - N/A   Scattered Clouds
2:53 PM 14.0 °F 0.5 °F 5.0 °F 67% 30.05 in 10.0 mi NNE 11.5 mph - N/A   Scattered Clouds
3:13 PM 15.8 °F 5.1 °F 5.0 °F 62% 30.04 in 10.0 mi North 8.1 mph - N/A   Mostly Cloudy
3:33 PM 15.8 °F 2.1 °F 5.0 °F 62% 30.05 in 10.0 mi NNE 12.7 mph 16.1 mph N/A   Overcast
3:53 PM 15.8 °F 2.1 °F 5.0 °F 62% 30.05 in 10.0 mi North 12.7 mph 17.3 mph N/A   Overcast
4:13 PM 15.8 °F 5.1 °F 5.0 °F 62% 30.05 in 10.0 mi NNE 8.1 mph 16.1 mph N/A   Mostly Cloudy
4:33 PM 15.8 °F 4.2 °F 5.0 °F 62% 30.05 in 10.0 mi NNE 9.2 mph - N/A   Overcast
4:53 PM 14.0 °F 1.2 °F 5.0 °F 67% 30.05 in 10.0 mi NNE 10.4 mph - N/A   Overcast
5:13 PM 14.0 °F 1.2 °F 6.8 °F 73% 30.05 in 10.0 mi NNE 10.4 mph 18.4 mph N/A   Overcast
5:33 PM 14.0 °F -1.4 °F 5.0 °F 67% 30.05 in 10.0 mi North 15.0 mph 23.0 mph N/A   Overcast
5:53 PM 14.0 °F -0.8 °F 6.8 °F 73% 30.04 in 10.0 mi NNE 13.8 mph 19.6 mph N/A   Overcast
6:13 PM 14.0 °F 2.0 °F 6.8 °F 73% 30.05 in 10.0 mi NNE 9.2 mph 18.4 mph N/A   Overcast
6:33 PM 14.0 °F 2.0 °F 6.8 °F 73% 30.06 in 10.0 mi NNE 9.2 mph - N/A   Overcast
6:53 PM 14.0 °F -0.8 °F 8.6 °F 79% 30.06 in 10.0 mi North 13.8 mph - N/A   Overcast
7:13 PM 14.0 °F 1.2 °F 8.6 °F 79% 30.07 in 7.0 mi North 10.4 mph - N/A   Overcast
7:33 PM 14.0 °F 0.5 °F 10.4 °F 86% 30.07 in 2.5 mi North 11.5 mph - N/A Snow Light Snow
7:53 PM 14.0 °F 1.2 °F 10.4 °F 86% 30.08 in 1.5 mi North 10.4 mph - N/A Snow Light Snow
8:13 PM 14.0 °F 0.5 °F 10.4 °F 86% 30.08 in 1.2 mi North 11.5 mph - N/A Snow Light Snow
8:33 PM 14.0 °F 3.9 °F 10.4 °F 86% 30.07 in 1.0 mi North 6.9 mph - N/A Snow Snow
8:53 PM 12.2 °F -1.0 °F 8.6 °F 85% 30.07 in 2.0 mi North 10.4 mph - N/A Snow Light Snow
9:13 PM 12.2 °F -1.8 °F 8.6 °F 85% 30.06 in 2.0 mi North 11.5 mph - N/A Snow Light Snow
9:33 PM 12.2 °F -1.0 °F 8.6 °F 85% 30.06 in 2.0 mi North 10.4 mph - N/A Snow Light Snow
9:54 PM 12.2 °F -1.8 °F 8.6 °F 85% 30.05 in 4.0 mi North 11.5 mph - N/A Snow Light Snow
10:13 PM 12.2 °F -1.0 °F 8.6 °F 85% 30.06 in 3.0 mi North 10.4 mph - N/A Snow Light Snow
10:33 PM 12.2 °F -2.5 °F 8.6 °F 85% 30.05 in 1.8 mi North 12.7 mph 16.1 mph N/A Snow Light Snow
10:54 PM 12.2 °F -3.1 °F 8.6 °F 85% 30.04 in 1.8 mi North 13.8 mph - N/A Snow Light Snow
11:13 PM 12.2 °F 0.7 °F 8.6 °F 85% 30.05 in 2.0 mi North 8.1 mph - N/A Snow Light Snow
11:33 PM 12.2 °F -1.0 °F 8.6 °F 85% 30.04 in 2.0 mi North 10.4 mph - N/A Snow Light Snow
11:53 PM 12.2 °F -1.8 °F 8.6 °F 85% 30.04 in 3.0 mi North 11.5 mph - N/A Snow Light Snow